Home > Time Zones > World Clock > Weather > Spain > Lugo > Past weeks

Flag for Spain Weather past 2 weeks in Lugo, Galicia, Spain

Now
59 °F

Clear.


Feels Like: 59 °F
Forecast: 60 / 78 °F
Wind: No wind

Location: Santiago / Labacolla

Current Time: Jul 23, 2014 at 6:49:50 AM

Latest Report: Jul 23, 2014 at 6:30 AM


Visibility: 10 mi

Pressure: 29.95 "Hg

Humidity: 100%

Dew point: 59 °F

Location of LugoLocation

Historic Weather in Lugo — Graph

°F

Lugo temperature yesterday

Maximum temperature yesterday: 86 °F (at 4:30 PM)
Minimum temperature yesterday: 57 °F (at 2:00 AM)
Average temperature yesterday: 69 °F

Past Weeks' High & Low Weather Summary

 TemperatureHumidityPressure
High86 °F (Jul 16, 6:30 PM)100% (Jul 8, 5:00 AM)30.30 "Hg (Jul 8, 5:00 AM)
Low46 °F (Jul 21, 6:30 AM)38% (Jul 10, 5:30 PM)29.80 "Hg (Jul 19, 5:00 AM)
Average64 °F81%30.12 "Hg
* Reported Jul 8 5:00 AM — Jul 23 5:30 AM, Lugo, Weather by CustomWeather, © 2014

Note: Actual official high and low records may vary slightly from our data, if they occured in-between our weather recording intervals... More about our weather records

Advertising

Lugo weather history for previous 24 hours

 ConditionsComfort  
Time TempWeatherWind HumidityBarometerVisibility
5:30 AM
Jul 23
59 °FClear.No wind94%29.98 "Hg10 mi
5:00 AM61 °FClear.No wind88%29.98 "Hg10 mi
4:30 AM64 °FClear.2 mph83%29.98 "Hg10 mi
4:00 AM63 °FClear.2 mph83%29.98 "Hg10 mi
3:30 AM64 °FClear.2 mph78%29.98 "Hg10 mi
3:00 AM66 °FClear.3 mph73%29.98 "Hg10 mi
2:30 AM64 °FClear.No wind83%29.98 "Hg10 mi
2:00 AM66 °FClear.1 mph78%30.01 "Hg10 mi
1:00 AM68 °FClear.2 mph78%30.01 "Hg10 mi
7:00 PM
Jul 22
84 °FPassing clouds.3 mph43%30.01 "HgN/A
6:30 PM86 °FPassing clouds.3 mph38%30.01 "HgN/A
6:00 PM84 °FPassing clouds.3 mph43%30.01 "HgN/A
5:30 PM86 °FPassing clouds.5 mph38%30.04 "HgN/A
5:00 PM84 °FPassing clouds.1 mph40%30.04 "HgN/A
4:30 PM86 °FPassing clouds.3 mph40%30.04 "HgN/A
4:00 PM84 °FPassing clouds.3 mph43%30.04 "HgN/A
3:30 PM84 °FSunny.2 mph48%30.04 "Hg10 mi
3:00 PM82 °FSunny.3 mph51%30.07 "Hg10 mi
2:30 PM82 °FSunny.2 mph55%30.07 "Hg10 mi
2:00 PM84 °FSunny.1 mph48%30.07 "Hg10 mi
1:30 PM82 °FSunny.1 mph51%30.07 "Hg10 mi
1:00 PM79 °FSunny.2 mph61%30.07 "Hg10 mi
12:30 PM77 °FSunny.2 mph65%30.07 "Hg10 mi
12:00 PM75 °FPassing clouds.5 mph69%30.07 "HgN/A
11:30 AM73 °FPassing clouds.3 mph69%30.07 "HgN/A
11:00 AM70 °FPassing clouds.3 mph73%30.07 "HgN/A
10:30 AM68 °FPassing clouds.5 mph78%30.09 "HgN/A
10:00 AM64 °FPassing clouds.5 mph88%30.09 "HgN/A
9:30 AM63 °FPassing clouds.6 mph94%30.09 "HgN/A
9:00 AM61 °FSunny.6 mph94%30.09 "Hg10 mi
8:30 AM59 °FSnow. Light fog.6 mph100%30.09 "Hg1 mi
8:00 AM57 °FSnow. Overcast.7 mph100%30.09 "Hg1 mi
7:30 AM57 °FPassing clouds.7 mph100%30.09 "Hg1 mi
7:00 AM57 °FLight fog.6 mph100%30.09 "Hg1 mi
6:30 AM57 °FFog.6 mph94%30.09 "Hg2 mi
6:00 AM57 °FFog.6 mph94%30.09 "Hg2 mi
Weather by CustomWeather, © 2014

See weather overviewHow to use our weather pages